FW1784 Weather Reports


time (UTC)temp
C
wind
direction
speed
KPH
gust
KPH
rain 1hr
cm
rain 24hr
cm
rain mn
cm
humidity
%
barometer
mb
20260504110103 5 67 0.0 1.6 0.00 0.00 0.00 84 1011.9
20260504090112 3 60 0.0 0.0 0.00 0.00 0.00 86 1011.8
20260504081603 3 60 0.0 0.0 0.00 0.00 0.00 83 1011.7
20260504070104 3 60 0.0 0.0 0.00 0.00 0.00 83 1011.5
20260504050003 4 60 0.0 0.0 0.00 0.00 0.00 81 1011.5
20260504043003 5 60 0.0 0.0 0.00 0.00 0.00 81 1011.4
20260504041602 5 60 0.0 0.0 0.00 0.00 0.00 82 1011.5
20260504040005 5 60 0.0 0.0 0.00 0.00 0.00 78 1011.4
20260504034503 5 60 0.0 0.0 0.00 0.00 0.00 78 1011.3
20260504033003 5 60 0.0 0.0 0.00 0.00 0.00 76 1011.4
20260504031630 5 60 0.0 0.0 0.00 0.00 0.00 74 1011.4
20260504030105 6 60 0.0 0.0 0.00 0.00 0.00 75 1011.3
20260504024502 6 60 0.0 0.0 0.00 0.00 0.00 73 1011.3
20260504023102 6 60 0.0 0.0 0.00 0.00 0.00 74 1011.3
20260504021612 6 60 0.0 1.6 0.00 0.00 0.00 73 1011.2
20260504020004 6 60 0.0 0.0 0.00 0.00 0.00 74 1011.2
20260504014505 6 60 0.0 0.0 0.00 0.00 0.00 72 1011.1
20260504013113 7 60 0.0 0.0 0.00 0.00 0.00 73 1011.0
20260504011502 7 60 0.0 0.0 0.00 0.00 0.00 69 1011.1
20260504010128 8 60 0.0 0.0 0.00 0.00 0.00 63 1010.9
20260504004602 8 60 0.0 0.0 0.00 0.00 0.00 59 1010.8
20260504003001 9 60 0.0 3.2 0.00 0.00 0.00 55 1010.6
20260504001503 10 60 0.0 3.2 0.00 0.00 0.00 49 1010.5
20260504000111 11 60 0.0 9.7 0.00 0.00 0.00 48 1010.4
20260503234502 11 111 1.6 11.3 0.00 0.00 0.00 46 1010.2
20260503233103 11 209 0.0 9.7 0.00 0.00 0.00 44 1010.0
20260503231503 12 199 3.2 11.3 0.00 0.00 0.00 44 1010.0
20260503224602 12 46 1.6 8.0 0.00 0.00 0.00 40 1009.8
20260503223103 12 219 3.2 25.7 0.00 0.00 0.00 39 1009.7
20260503221502 12 171 1.6 14.5 0.00 0.00 0.00 37 1009.7
20260503220105 12 301 4.8 20.9 0.00 0.00 0.00 36 1009.5
20260503214601 13 128 4.8 14.5 0.00 0.00 0.00 34 1009.5
20260503213003 13 17 3.2 12.9 0.00 0.00 0.00 30 1009.3
20260503211502 13 286 3.2 16.1 0.00 0.00 0.00 31 1009.3
20260503210104 13 283 6.4 16.1 0.00 0.00 0.00 28 1009.1
20260503204622 13 167 3.2 17.7 0.00 0.00 0.00 31 1009.3
20260503203005 13 152 6.4 16.1 0.00 0.00 0.00 30 1009.3
20260503201603 14 42 3.2 9.7 0.00 0.00 0.00 31 1009.2
20260503200105 13 222 3.2 16.1 0.00 0.00 0.00 32 1009.4
20260503194603 13 152 4.8 22.5 0.00 0.00 0.00 32 1009.7
20260503193002 13 28 1.6 24.1 0.00 0.00 0.00 35 1009.7
20260503191607 13 329 3.2 17.7 0.00 0.00 0.00 33 1009.9
20260503190004 12 69 6.4 17.7 0.00 0.00 0.00 36 1009.9
20260503184502 11 268 3.2 12.9 0.00 0.00 0.00 38 1010.3
20260503183108 11 214 4.8 12.9 0.00 0.00 0.00 38 1010.5
20260503180005 11 84 1.6 17.7 0.00 0.03 0.00 41 1010.6
20260503174600 11 185 4.8 12.9 0.00 0.03 0.00 40 1010.6
20260503173001 11 80 4.8 16.1 0.00 0.03 0.00 41 1010.7
20260503171603 10 19 3.2 20.9 0.00 0.03 0.00 42 1010.8
20260503160104 8 70 0.0 14.5 0.00 0.03 0.00 47 1011.4
20260503130104 7 250 4.8 24.1 0.00 0.03 0.00 55 1011.5